User: anonymous   Login
Location: Unspecified
(0.0000°N, 0.0000°E)
Time: 19:43:14
(UTC+00:00)
Language:

RISAT 1 - Orbit

View from above orbital plane
View from above orbital plane
View from above satellite
View from above satellite

Ground track
Ground track

The orbit data is extracted from the following two-line orbital elements,

1 38248U 12017A   17233.54000166  .00000214  00000-0  17460-4 0  9993
2 38248  97.5742 240.3779 0004481 154.6304 319.6905 15.09159325293099
Epoch (UTC): 21 August 2017 12:57:36
Eccentricity: 0.0004481
inclination: 97.5742°
perigee height: 535 km
apogee height: 542 km
right ascension of ascending node: 240.3779°
argument of perigee: 154.6304°
revolutions per day: 15.09159325
mean anomaly at epoch: 319.6905°
orbit number at epoch: 29309

The dashed part of the orbit path shows where the satellite is in the earth's shadow,  

DLR